• In Uzbekistan
  • List of Countries
  • For 7 days
  • Water Temperature
  • Weather Map
  • Weather Widgets
  • user-avatar
    Login

    Hourly Weather Lankaran

    Today, 21 October, Monday

    Time Temperature Precipitation Wind Pressure Humidity
    00:00 +8°C° 0 mm 1 mps 637 mmHg 64%
    01:00 +8°C° 0 mm 1 mps 637 mmHg 63%
    02:00 +8°C° 0 mm 1 mps 637 mmHg 63%
    03:00 +7°C° 0 mm 0 mps 636 mmHg 62%
    04:00 +7°C° 0 mm 0 mps 637 mmHg 62%
    05:00 +8°C° 0 mm 1 mps 637 mmHg 62%
    06:00 +8°C° 0 mm 1 mps 637 mmHg 62%
    07:00 +9°C° 0 mm 1 mps 637 mmHg 62%
    08:00 +10°C° 0 mm 1 mps 638 mmHg 61%
    09:00 +11°C° 0 mm 1 mps 639 mmHg 61%
    10:00 +10°C° 0 mm 2 mps 639 mmHg 61%
    11:00 +12°C° 0 mm 2 mps 639 mmHg 61%
    12:00 +12°C° 0 mm 3 mps 639 mmHg 62%
    13:00 +12°C° 0 mm 3 mps 638 mmHg 64%
    14:00 +11°C° 0 mm 3 mps 638 mmHg 67%
    15:00 +11°C° 0 mm 3 mps 638 mmHg 70%
    16:00 +10°C° 0 mm 2 mps 637 mmHg 75%
    17:00 +9°C° 0 mm 2 mps 637 mmHg 80%
    18:00 +9°C° 0 mm 1 mps 637 mmHg 85%
    19:00 +9°C° 0 mm 1 mps 637 mmHg 83%
    20:00 +9°C° 0 mm 1 mps 637 mmHg 81%
    21:00 +8°C° 0 mm 1 mps 637 mmHg 79%
    22:00 +8°C° 0 mm 1 mps 637 mmHg 79%
    23:00 +8°C° 0 mm 1 mps 636 mmHg 79%

    Tomorrow, 22 October, Tuesday

    Time Temperature Precipitation Wind Pressure Humidity
    00:00 +8°C° 0 mm 1 mps 636 mmHg 80%
    01:00 +7°C° 0 mm 0 mps 636 mmHg 80%
    02:00 +6°C° 0 mm 0 mps 636 mmHg 81%
    03:00 +6°C° 0 mm 0 mps 636 mmHg 82%
    04:00 +6°C° 0 mm 0 mps 636 mmHg 81%
    05:00 +6°C° 0 mm 0 mps 636 mmHg 81%
    06:00 +6°C° 0 mm 0 mps 636 mmHg 81%
    07:00 +8°C° 0 mm 1 mps 636 mmHg 76%
    08:00 +9°C° 0 mm 1 mps 637 mmHg 72%
    09:00 +11°C° 0 mm 1 mps 637 mmHg 67%
    10:00 +10°C° 0 mm 2 mps 637 mmHg 67%
    11:00 +12°C° 0 mm 2 mps 637 mmHg 66%
    12:00 +12°C° 0 mm 2 mps 637 mmHg 66%
    13:00 +12°C° 0 mm 2 mps 637 mmHg 68%
    14:00 +12°C° 0 mm 2 mps 636 mmHg 71%
    15:00 +10°C° 0 mm 2 mps 636 mmHg 73%
    16:00 +9°C° 0 mm 2 mps 636 mmHg 78%
    17:00 +9°C° 0 mm 2 mps 636 mmHg 82%
    18:00 +9°C° 0 mm 1 mps 636 mmHg 87%
    19:00 +9°C° 0 mm 1 mps 636 mmHg 86%
    20:00 +9°C° 0 mm 1 mps 636 mmHg 86%
    21:00 +8°C° 0 mm 0 mps 636 mmHg 86%
    22:00 +8°C° 0.1 mm 0 mps 636 mmHg 86%
    23:00 +8°C° 0.1 mm 0 mps 636 mmHg 86%

    Day after tomorrow, 23 October, Wednesday

    Time Temperature Precipitation Wind Pressure Humidity
    00:00 +8°C° 0.1 mm 0 mps 636 mmHg 86%
    01:00 +9°C° 0.1 mm 1 mps 636 mmHg 87%
    02:00 +9°C° 0.1 mm 1 mps 635 mmHg 88%
    03:00 +9°C° 0.1 mm 1 mps 635 mmHg 88%
    04:00 +8°C° 0.4 mm 1 mps 635 mmHg 89%
    05:00 +8°C° 0.4 mm 1 mps 635 mmHg 90%
    06:00 +8°C° 0.4 mm 1 mps 636 mmHg 91%
    07:00 +8°C° 0.7 mm 1 mps 636 mmHg 92%
    08:00 +8°C° 0.7 mm 1 mps 636 mmHg 92%
    09:00 +8°C° 0.7 mm 1 mps 636 mmHg 93%
    10:00 +8°C° 0.3 mm 1 mps 636 mmHg 92%
    11:00 +9°C° 0.3 mm 1 mps 636 mmHg 92%
    12:00 +9°C° 0.3 mm 1 mps 636 mmHg 92%
    13:00 +9°C° 0.1 mm 1 mps 636 mmHg 91%
    14:00 +9°C° 0.1 mm 1 mps 635 mmHg 90%
    15:00 +9°C° 0.1 mm 1 mps 635 mmHg 90%
    16:00 +9°C° 0.1 mm 1 mps 635 mmHg 91%
    17:00 +9°C° 0.1 mm 1 mps 635 mmHg 93%
    18:00 +8°C° 0.1 mm 1 mps 635 mmHg 94%
    19:00 +7°C° 0.6 mm 2 mps 636 mmHg 94%
    20:00 +7°C° 0.6 mm 2 mps 636 mmHg 94%
    21:00 +7°C° 0.6 mm 2 mps 636 mmHg 94%
    22:00 +8°C° 0.3 mm 1 mps 636 mmHg 94%
    23:00 +8°C° 0.3 mm 1 mps 636 mmHg 94%

    24 October, Thursday

    Time Temperature Precipitation Wind Pressure Humidity
    00:00 +8°C° 0.3 mm 1 mps 636 mmHg 94%
    01:00 +8°C° 0.1 mm 1 mps 636 mmHg 95%
    02:00 +8°C° 0.1 mm 1 mps 636 mmHg 95%
    03:00 +8°C° 0.1 mm 1 mps 636 mmHg 95%
    04:00 +8°C° 0.3 mm 1 mps 636 mmHg 95%
    05:00 +8°C° 0.3 mm 1 mps 636 mmHg 95%
    06:00 +8°C° 0.3 mm 1 mps 636 mmHg 95%
    07:00 +9°C° 0.2 mm 1 mps 636 mmHg 94%
    08:00 +9°C° 0.2 mm 1 mps 637 mmHg 94%
    09:00 +9°C° 0.2 mm 1 mps 637 mmHg 93%
    10:00 +9°C° 0 mm 1 mps 636 mmHg 92%
    11:00 +8°C° 0 mm 2 mps 636 mmHg 91%
    12:00 +9°C° 0 mm 2 mps 636 mmHg 90%
    13:00 +9°C° 0 mm 2 mps 636 mmHg 90%
    14:00 +9°C° 0 mm 2 mps 636 mmHg 90%
    15:00 +9°C° 0 mm 2 mps 635 mmHg 90%
    16:00 +9°C° 0.1 mm 2 mps 635 mmHg 92%
    17:00 +10°C° 0.1 mm 1 mps 636 mmHg 93%
    18:00 +9°C° 0.1 mm 1 mps 636 mmHg 94%
    19:00 +10°C° 0.6 mm 1 mps 636 mmHg 95%
    20:00 +10°C° 0.6 mm 1 mps 636 mmHg 95%
    21:00 +10°C° 0.6 mm 1 mps 636 mmHg 96%
    22:00 +10°C° 1.2 mm 1 mps 636 mmHg 95%
    23:00 +10°C° 1.2 mm 1 mps 635 mmHg 95%

    25 October, Friday

    Time Temperature Precipitation Wind Pressure Humidity
    00:00 +9°C° 1.2 mm 0 mps 635 mmHg 95%
    01:00 +8°C° 1.3 mm 0 mps 635 mmHg 95%
    02:00 +8°C° 1.3 mm 0 mps 635 mmHg 95%
    03:00 +8°C° 1.3 mm 0 mps 635 mmHg 96%
    04:00 +8°C° 0.1 mm 0 mps 635 mmHg 96%
    05:00 +9°C° 0.1 mm 1 mps 635 mmHg 96%
    06:00 +9°C° 0.1 mm 1 mps 635 mmHg 96%
    07:00 +10°C° 0.1 mm 1 mps 635 mmHg 95%
    08:00 +10°C° 0.1 mm 1 mps 635 mmHg 93%
    09:00 +11°C° 0.1 mm 1 mps 636 mmHg 91%
    10:00 +10°C° 0.1 mm 2 mps 635 mmHg 89%
    11:00 +12°C° 0.1 mm 2 mps 635 mmHg 86%
    12:00 +12°C° 0.1 mm 2 mps 635 mmHg 84%
    13:00 +12°C° 0 mm 2 mps 635 mmHg 84%
    14:00 +12°C° 0 mm 2 mps 635 mmHg 85%
    15:00 +12°C° 0 mm 2 mps 635 mmHg 85%
    16:00 +12°C° 0.1 mm 2 mps 635 mmHg 88%
    17:00 +10°C° 0.1 mm 2 mps 635 mmHg 90%
    18:00 +9°C° 0.1 mm 2 mps 634 mmHg 93%
    19:00 +10°C° 0 mm 1 mps 634 mmHg 94%
    20:00 +10°C° 0 mm 1 mps 634 mmHg 94%
    21:00 +10°C° 0 mm 1 mps 634 mmHg 95%
    22:00 +10°C° 0 mm 1 mps 634 mmHg 95%
    23:00 +10°C° 0 mm 1 mps 634 mmHg 95%

    26 October, Saturday

    Time Temperature Precipitation Wind Pressure Humidity
    00:00 +10°C° 0 mm 1 mps 634 mmHg 95%
    01:00 +10°C° 0.2 mm 1 mps 634 mmHg 95%
    02:00 +10°C° 0.2 mm 1 mps 634 mmHg 94%
    03:00 +10°C° 0.2 mm 1 mps 634 mmHg 94%
    04:00 +10°C° 0.6 mm 1 mps 634 mmHg 94%
    05:00 +10°C° 0.6 mm 1 mps 634 mmHg 95%
    06:00 +10°C° 0.6 mm 1 mps 635 mmHg 95%
    07:00 +10°C° 2.9 mm 1 mps 635 mmHg 95%
    08:00 +10°C° 2.9 mm 1 mps 635 mmHg 95%
    09:00 +10°C° 2.9 mm 1 mps 635 mmHg 95%
    10:00 +10°C° 1.1 mm 1 mps 635 mmHg 93%
    11:00 +10°C° 1.1 mm 1 mps 635 mmHg 91%
    12:00 +11°C° 1.1 mm 1 mps 636 mmHg 90%
    13:00 +10°C° 0.1 mm 2 mps 635 mmHg 89%
    14:00 +10°C° 0.1 mm 2 mps 635 mmHg 89%
    15:00 +10°C° 0.1 mm 2 mps 635 mmHg 89%
    16:00 +9°C° 0.1 mm 2 mps 635 mmHg 90%
    17:00 +9°C° 0.1 mm 2 mps 635 mmHg 92%
    18:00 +8°C° 0.1 mm 2 mps 635 mmHg 93%
    19:00 +9°C° 0.2 mm 1 mps 635 mmHg 93%
    20:00 +9°C° 0.2 mm 1 mps 636 mmHg 93%
    21:00 +9°C° 0.2 mm 1 mps 636 mmHg 93%
    22:00 +9°C° 0.8 mm 1 mps 635 mmHg 94%
    23:00 +9°C° 0.8 mm 1 mps 635 mmHg 94%

    27 October, Sunday

    Time Temperature Precipitation Wind Pressure Humidity
    00:00 +9°C° 0.8 mm 1 mps 635 mmHg 95%
    01:00 +9°C° 0.1 mm 1 mps 635 mmHg 95%
    02:00 +9°C° 0.1 mm 1 mps 635 mmHg 95%
    03:00 +9°C° 0.1 mm 1 mps 635 mmHg 94%
    04:00 +9°C° 0.1 mm 1 mps 635 mmHg 94%
    05:00 +9°C° 0.1 mm 1 mps 635 mmHg 94%
    06:00 +9°C° 0.1 mm 1 mps 635 mmHg 94%
    07:00 +9°C° 0.1 mm 1 mps 635 mmHg 92%
    08:00 +9°C° 0.1 mm 1 mps 636 mmHg 90%
    09:00 +10°C° 0.1 mm 1 mps 636 mmHg 87%
    10:00 +10°C° 0.2 mm 1 mps 636 mmHg 86%
    11:00 +10°C° 0.2 mm 1 mps 636 mmHg 85%
    12:00 +10°C° 0.2 mm 2 mps 635 mmHg 84%
    13:00 +10°C° 0 mm 2 mps 635 mmHg 85%
    14:00 +10°C° 0 mm 2 mps 635 mmHg 85%
    15:00 +10°C° 0 mm 2 mps 635 mmHg 85%
    16:00 +9°C° 0.2 mm 2 mps 634 mmHg 88%
    17:00 +10°C° 0.2 mm 1 mps 634 mmHg 90%
    18:00 +9°C° 0.2 mm 1 mps 634 mmHg 92%
    19:00 +9°C° 0.1 mm 1 mps 634 mmHg 92%
    20:00 +9°C° 0.1 mm 1 mps 634 mmHg 92%
    21:00 +9°C° 0.1 mm 1 mps 635 mmHg 92%
    22:00 +8°C° 0 mm 0 mps 634 mmHg 91%
    23:00 +8°C° 0 mm 0 mps 634 mmHg 90%
    Show more